Regional Weather Roundup
Issued by NWS

Home | Current Version | Previous Version | Text Only | Print | Product List | Glossary Off
Versions: 1 2 3 4 5 6 7 8 9 10 11 12 13 14 15 16 17 18 19 20 21 22 23 24 25 26 27 28 29 30 31 32 33 34 35 36 37 38 39 40 41 42 43 44 45 46 47 48 49 50

000
ASUS45 KPSR 241510
RWRAZ

ARIZONA HOURLY REGIONAL WEATHER ROUNDUP
NATIONAL WEATHER SERVICE PHOENIX AZ
800 AM MST FRI FEB 24 2017

NOTE: FAIR INDICATES FEW OR NO CLOUDS BELOW 12,000 FEET WITH NO
SIGNIFICANT WEATHER AND/OR OBSTRUCTIONS TO VISIBILITY.

AZZ001>003-036-241600-
NORTHWEST ARIZONA

CITY           SKY/WX    TMP DP  RH WIND       PRES   REMARKS
BULLHEAD CITY  CLEAR     43  27  52 S3        30.13R
KINGMAN        CLEAR     30   6  36 E8        30.08R WCI  22
$$

AZZ004>008-015-016-018-241600-
NORTH CENTRAL ARIZONA

CITY           SKY/WX    TMP DP  RH WIND       PRES   REMARKS
GRAND CANYON   CLEAR     18  13  80 CALM      29.98R
WILLIAMS       SUNNY     19  12  73 CALM      30.00R
PRESCOTT       SUNNY     24  14  65 S5        30.04R WCI  18
FLAGSTAFF      SUNNY     20   7  57 VRB5      29.97R WCI  13
PAYSON         SUNNY     28  19  69 CALM      30.05R
PAGE           SUNNY     34   9  35 W8        29.98R WCI  27
$$

AZZ009>014-017-241600-
NORTHEAST ARIZONA

CITY           SKY/WX    TMP DP  RH WIND       PRES   REMARKS
WINSLOW        SUNNY     30  13  49 SW6       30.02R WCI  24
SAINT JOHNS    SUNNY     28  16  60 W9        29.99R WCI  19
WINDOW ROCK    SUNNY     24   6  46 CALM      29.94R
SHOW LOW       LGT RAIN  25  16  68 S7        30.01R WCI  17
$$

AZZ023-241600-
GREATER PHOENIX AREA

CITY           SKY/WX    TMP DP  RH WIND       PRES   REMARKS
PHOENIX        MOSUNNY   44  34  67 E6        30.07R
BUCKEYE        SUNNY     37  37 100 NW3       30.09R
GLENDALE       SUNNY     43  32  65 CALM      30.10R
LUKE AFB       SUNNY     41  31  68 NW6       30.08R
DEER VALLEY    SUNNY     41  32  70 E3        30.07R
SCOTTSDALE     SUNNY     43  32  65 CALM      30.09R
MESA-FALCON    SUNNY    N/A N/A N/A N6        30.05R
MESA-GATEWAY   SUNNY     39  30  70 E5        30.09R
CHANDLER       SUNNY     41  30  65 CALM      30.08R
$$

AZZ027-028-241600-
SOUTHWEST MARICOPA COUNTY AND PINAL COUNTY

CITY           SKY/WX    TMP DP  RH WIND       PRES   REMARKS
CASA GRANDE    NOT AVBL
GILA BEND      SUNNY     46   9  21 NW5       30.08
$$

AZZ503-504-507>509-241600-
SOUTHEAST ARIZONA

CITY           SKY/WX    TMP DP  RH WIND       PRES   REMARKS
TUCSON         SUNNY     39  21  48 SE6       30.10R WCI  35
DAVIS-MONTHAN  SUNNY     40  20  45 S8        30.09R WCI  34
RYAN FIELD     SUNNY     34  45 100 S3        30.11R
NOGALES        SUNNY     35  22  58 CALM      30.07R
SIERRA VISTA   SUNNY     37  17  44 W6        30.07R WCI  32
DOUGLAS        SUNNY     36  18  48 NW5       30.08R WCI  32
SAFFORD          N/A     37  18  46 SE3       30.06R
$$

AZZ020-021-025-026-031-241600-
SOUTHWEST ARIZONA

CITY           SKY/WX    TMP DP  RH WIND       PRES   REMARKS
YUMA           PTCLDY    48  30  49 N3        30.12R
$$

CAZ031-033-041-043-047-048-061-241600-
SOUTHERN CALIFORNIA

CITY           SKY/WX    TMP DP  RH WIND       PRES   REMARKS
DOWNTOWN L.A.  CLEAR     45  26  47 CALM      30.14R
L.A. AIRPORT   PTCLDY    47  25  42 N6        30.15R
SAN DIEGO      PTCLDY    47  36  65 CALM      30.16R
BURBANK        CLEAR     38  22  52 CALM      30.12R
ONTARIO        MOCLDY    38  33  82 CALM      30.13R
RIVERSIDE      PTCLDY    38  34  85 E5        30.14R WCI  34
PALM SPRINGS   CLEAR     50  30  46 VRB5      30.14R
EL CENTRO NAS  CLEAR     44  28  53 CALM      30.14R
IMPERIAL       CLEAR     43  32  65 CALM      30.12R
BLYTHE         CLEAR     43  30  60 NW3       30.13R
NEEDLES        CLEAR     44  31  60 CALM      30.12R
$$

NVZ020-UTZ003-241600-
SOUTHERN NEVADA-UTAH

CITY           SKY/WX    TMP DP  RH WIND       PRES   REMARKS
LAS VEGAS      PTCLDY    39  18  42 SW3       30.11R
SALT LAKE CITY FLURRIES  26  20  77 W12       30.02R WCI  16
$$

NMZ009-TXZ055-241600-
NEW MEXICO-WEST TEXAS

CITY           SKY/WX    TMP DP  RH WIND       PRES   REMARKS
ALBUQUERQUE    MOSUNNY   33  15  47 W6        29.96R WCI  28
EL PASO        SUNNY     47  11  23 N12       30.01R
$$


........................KEY........................
SKY/WX - SKY CONDITION/WEATHER
TMP    - TEMPERATURE IN FAHRENHEIT
DP     - DEW POINT IN FAHRENHEIT
RH     - RELATIVE HUMIDITY IN PERCENT
WIND   - DIRECTION AND SPEED IN MILES PER HOUR (MPH)
VRB    - VARIABLE WIND DIRECTION
PRES   - MEAN SEA LEVEL PRESSURE IN INCHES OF MERCURY
         F - FALLING PRESSURE   R - RISING PRESSURE
         S - STEADY PRESSURE
VSB    - VISIBILITY IN MILES
HX     - HEAT INDEX IN FAHRENHEIT
WCI    - WIND CHILL INDEX IN FAHRENHEIT
TC     - TEMPERATURE IN CELSIUS WHICH IS ALSO KNOWN AS
         TEMPERATURE IN CENTIGRADE
AFB    - AIR FORCE BASE
         LUKE AFB IS LUKE AIR FORCE BASE
         DAVIS-MONTHAN IS DAVIS-MONTHAN AIR FORCE BASE
NAS    - NAVAL AIR STATION
         EL CENTRO NAS IS EL CENTRO NAVAL AIR STATION
N/A    - NOT AVAILABLE




USA.gov is the U.S. government's official web portal to all federal, state and local government web resources and services.